Location: Cape Cod Imaging Station
(41.7417°N, 70.1583°W)
Time: 23:13:39
(UTC-04:00)

Amateur Radio Satellites - All Passes

Search period start: 20 October 2017 22:43
Search period end: 21 October 2017 22:43
Location: Cape Cod Imaging Station, 41.7417°N, 70.1583°W

Satellite Date Start Highest point End Downlink Frequencies (MHz)
Time Altitude Azimuth
FO-29 20 Oct 22:45:24 22:51:39 39° 293° (WNW) 22:58:27 435.910
Max Valier Satellite 20 Oct 22:50:11 22:52:02 13° 268° (W) 22:53:54 145.860
RS-15 20 Oct 22:50:17 22:58:31 21° 98° (E) 23:06:44 29.354- 29.394
TIGRISAT 20 Oct 22:56:21 23:00:57 67° 286° (WNW) 23:05:24 435.000
AIST 2D 20 Oct 22:57:42 22:59:12 12° 91° (E) 23:00:43 435.315
AO-85 20 Oct 23:00:25 23:04:26 29° 245° (WSW) 23:08:40 145.980
SPROUT 20 Oct 23:04:32 23:06:53 15° 63° (ENE) 23:09:15 437.525
BEESAT 2 20 Oct 23:04:42 23:06:56 15° 250° (WSW) 23:09:09 435.950
LO-87 20 Oct 23:25:36 23:29:04 48° 261° (W) 23:32:36 145.935 - 145.965
EO-79 20 Oct 23:34:26 23:36:45 14° 91° (E) 23:39:02 145.935-145.965
POLYITAN 1 20 Oct 23:39:01 23:41:40 16° 92° (E) 23:44:17 437.675
PRISM 20 Oct 23:39:20 23:43:17 45° 288° (WNW) 23:47:14 437.425
VELOX 1 20 Oct 23:51:02 23:54:55 31° 69° (ENE) 23:58:48 145.980
QB50P2 20 Oct 23:58:28 00:02:12 29° 96° (E) 00:05:54 145.880/145.840
NANOSAT C BR1 21 Oct 00:01:22 00:04:54 25° 95° (E) 00:08:23 145.865
ESTCUBE 1 21 Oct 00:03:31 00:07:33 33° 263° (W) 00:11:37 437.505/2401.250
DUCHIFAT 1 21 Oct 00:11:43 00:15:24 28° 96° (E) 00:19:02 145.980
AIST 2D 21 Oct 00:29:21 00:32:33 36° 287° (WNW) 00:35:44 435.315
SPROUT 21 Oct 00:38:09 00:42:19 54° 260° (W) 00:46:33 437.525
DX 1 21 Oct 00:55:31 00:59:32 39° 70° (ENE) 01:03:34 434.975-435.025
RS-15 21 Oct 00:56:50 01:09:07 83° 119° (ESE) 01:21:27 29.354- 29.394
Oscar 19 21 Oct 01:05:48 01:08:54 16° 91° (E) 01:11:59 437.125/150
EO-79 21 Oct 01:08:39 01:12:47 49° 287° (WNW) 01:16:52 145.935-145.965
POLYITAN 1 21 Oct 01:13:36 01:17:39 44° 288° (WNW) 01:21:40 437.675
UKube-1 21 Oct 01:18:22 01:22:26 43° 71° (ENE) 01:26:32 .
VELOX 1 21 Oct 01:27:51 01:31:22 23° 265° (W) 01:34:54 145.980
50 SAT 21 Oct 01:33:44 01:36:54 51° 260° (W) 01:40:07 437.505
QB50P2 21 Oct 01:34:23 01:37:51 24° 292° (WNW) 01:41:18 145.880/145.840
NANOSAT C BR1 21 Oct 01:36:55 01:40:32 28° 292° (WNW) 01:44:09 145.865
Gurwin Techsat 1B 21 Oct 01:40:33 01:44:52 25° 94° (E) 01:49:09 435.225
DUCHIFAT 1 21 Oct 01:47:29 01:50:56 25° 292° (WNW) 01:54:21 145.980
BUGSAT 1 21 Oct 01:52:21 01:56:36 82° 284° (WNW) 02:00:46 437.445
MOZHAYETS 4 21 Oct 02:04:20 02:07:45 21° 65° (ENE) 02:11:10
DX 1 21 Oct 02:32:48 02:35:51 19° 266° (W) 02:38:55 434.975-435.025
ITUPSAT 1 21 Oct 02:37:52 02:42:21 40° 70° (ENE) 02:46:51 437.325
M-CUBED/EXP-1 PRIME 21 Oct 02:42:55 02:46:29 80° 291° (WNW) 02:50:19 437.505
Oscar 19 21 Oct 02:43:34 02:48:37 61° 288° (WNW) 02:53:39 437.125/150
BEESAT 21 Oct 02:52:43 02:57:24 58° 72° (ENE) 03:02:08 436.000
UKube-1 21 Oct 02:55:55 02:58:39 16° 267° (W) 03:01:25 .
NO-84 21 Oct 03:01:41 03:05:57 66° 136° (SE) 03:10:11 435.350 FM
RS-15 21 Oct 03:11:52 03:23:04 38° 325° (NW) 03:34:11 29.354- 29.394
ITAMSAT 1 21 Oct 03:18:33 03:22:06 18° 92° (E) 03:25:38 435.822/435.867
Gurwin Techsat 1B 21 Oct 03:19:56 03:24:56 43° 291° (WNW) 03:29:55 435.225
KKS-1 21 Oct 03:30:15 03:30:42 10° 59° (ENE) 03:31:08 437.445
MOZHAYETS 4 21 Oct 03:40:13 03:44:36 42° 262° (W) 03:49:01
CUBESAT XI-V 21 Oct 03:52:50 03:57:22 58° 73° (ENE) 04:01:54 437.345
AO-7 21 Oct 04:05:03 04:13:16 60° 103° (ESE) 04:21:27 .
ITUPSAT 1 21 Oct 04:16:36 04:20:18 22° 266° (W) 04:24:01 437.325
BEESAT 21 Oct 04:32:47 04:35:32 15° 269° (W) 04:38:18 436.000
NO-84 21 Oct 04:40:01 04:43:40 26° 333° (NNW) 04:47:15 435.350 FM
ITAMSAT 1 21 Oct 04:56:46 05:01:54 56° 289° (WNW) 05:07:00 435.822/435.867
KKS-1 21 Oct 05:02:06 05:06:32 87° 256° (WSW) 05:11:00 437.445
DOVE 4 21 Oct 05:25:55 05:30:43 44° 98° (E) 05:35:42 437.250
RS-15 21 Oct 05:31:15 05:40:27 23° 359° (N) 05:49:26 29.354- 29.394
CUBESAT XI-V 21 Oct 05:32:37 05:35:05 14° 269° (W) 05:37:33 437.345
STARS 21 Oct 05:32:50 05:37:13 82° 75° (ENE) 05:41:39 437.465
CUTE-I 21 Oct 05:34:33 05:35:35 10° 88° (E) 05:36:36 437.470
KAITUO 1B 21 Oct 05:52:15 05:52:48 10° 90° (E) 05:53:20 145.475/437.950
XW-2F 21 Oct 05:53:52 05:56:00 15° 92° (E) 05:58:09 145.980 - 146.000
AO-7 21 Oct 05:58:28 06:05:34 33° 303° (WNW) 06:12:41 .
LilacSat-2 21 Oct 06:00:03 06:02:55 20° 94° (E) 06:05:45 437.200
NUDT-PHONESAT 21 Oct 06:03:52 06:05:53 14° 92° (E) 06:07:52 437.300
XW-2D 21 Oct 06:06:08 06:09:09 23° 95° (E) 06:12:09 145.860 - 145.880
SO-50 21 Oct 06:12:53 06:16:56 35° 115° (ESE) 06:21:01 436.795
O/OREOS (USA 219) 21 Oct 06:18:06 06:22:42 70° 66° (ENE) 06:27:15 437.305
XW-2B 21 Oct 06:19:20 06:22:43 31° 97° (E) 06:26:04 145.730 - 145.750
NO-84 21 Oct 06:20:14 06:22:14 13° 353° (N) 06:24:13 435.350 FM
STRAND 1 21 Oct 06:38:25 06:43:08 38° 68° (ENE) 06:47:52 437.568
XW-2C 21 Oct 06:42:22 06:46:07 65° 102° (ESE) 06:49:48 145.795 - 145.815
PCSat 21 Oct 06:55:12 06:58:15 15° 104° (ESE) 07:01:18 145.827
HO-68 21 Oct 06:59:23 07:05:35 30° 95° (E) 07:11:44 435.675
DOVE 4 21 Oct 07:04:13 07:08:08 23° 293° (WNW) 07:12:10 437.250
CUTE-I 21 Oct 07:10:55 07:16:20 87° 104° (ESE) 07:21:43 437.470
FO-29 21 Oct 07:16:11 07:19:12 15° 57° (ENE) 07:22:20 435.910
CUBEBUG 2 21 Oct 07:21:53 07:25:34 23° 93° (E) 07:29:09 437.445
KAITUO 1B 21 Oct 07:23:29 07:27:04 50° 286° (WNW) 07:30:38 145.475/437.950
XW-2A 21 Oct 07:25:51 07:26:48 11° 91° (E) 07:27:47 145.665 - 145.685
XW-2F 21 Oct 07:26:50 07:30:16 35° 288° (WNW) 07:33:39 145.980 - 146.000
LilacSat-2 21 Oct 07:33:59 07:37:09 26° 290° (WNW) 07:40:19 437.200
NUDT-PHONESAT 21 Oct 07:36:30 07:39:52 35° 288° (WNW) 07:43:13 437.300
XW-2D 21 Oct 07:40:14 07:43:14 23° 291° (WNW) 07:46:14 145.860 - 145.880
YUBILEINY 21 Oct 07:45:08 07:49:55 16° 76° (ENE) 07:54:43 435.215
RS-15 21 Oct 07:46:56 07:57:52 37° 34° (NNE) 08:08:16 29.354- 29.394
CUTE 1.7 + AOD 2 21 Oct 07:48:32 07:52:45 77° 102° (ESE) 07:56:56 437.475
SO-50 21 Oct 07:53:32 07:57:25 28° 313° (NW) 08:01:21 436.795
SEEDS 21 Oct 07:54:06 07:58:10 53° 99° (E) 08:02:15 437.485
XW-2B 21 Oct 07:54:08 07:56:39 17° 293° (WNW) 07:59:09 145.730 - 145.750
UWE-3 21 Oct 07:57:59 08:02:00 31° 95° (E) 08:05:53 435.000/436.395/437.385
NO-84 21 Oct 07:58:33 08:01:03 16° 15° (NNE) 08:03:26 435.350 FM
O/OREOS (USA 219) 21 Oct 07:59:56 08:01:27 11° 263° (W) 08:02:57 437.305
Oscar 11 21 Oct 08:10:27 08:12:29 13° 90° (E) 08:14:30 .
AAUSAT CUBESAT 2 21 Oct 08:15:32 08:19:25 39° 98° (E) 08:23:18 437.432
STRAND 1 21 Oct 08:18:07 08:22:22 26° 265° (W) 08:26:40 437.568
TIGRISAT 21 Oct 08:21:06 08:23:02 13° 61° (ENE) 08:24:59 435.000
ISS 21 Oct 08:34:42 08:35:01 10° 129° (SE) 08:35:21 437.550
PCSat 21 Oct 08:35:33 08:40:58 74° 301° (WNW) 08:46:25 145.827
HO-68 21 Oct 08:46:36 08:53:34 53° 293° (WNW) 09:00:29 435.675
AO-73 21 Oct 08:46:58 08:51:13 49° 99° (E) 08:55:18 145.935
CUTE-I 21 Oct 08:53:03 08:55:37 14° 302° (WNW) 08:58:10 437.470
PRISM 21 Oct 08:56:08 08:57:28 11° 62° (ENE) 08:58:48 437.425
XW-2A 21 Oct 08:56:35 08:59:43 37° 287° (WNW) 09:02:47 145.665 - 145.685
CUBEBUG 2 21 Oct 08:58:02 09:02:15 35° 290° (WNW) 09:06:20 437.445
FO-29 21 Oct 08:58:19 09:03:31 73° 258° (WSW) 09:09:09 435.910
ZACube-1 21 Oct 09:09:31 09:13:54 81° 284° (WNW) 09:18:10 437.345
CUTE 1.7 + AOD 2 21 Oct 09:27:30 09:27:56 10° 299° (WNW) 09:28:22 437.475
SEEDS 21 Oct 09:31:15 09:33:25 14° 296° (WNW) 09:35:34 437.485
nSIGHT-1 21 Oct 09:32:44 09:35:47 46° 140° (SE) 09:38:52 .
UWE-3 21 Oct 09:34:38 09:38:18 25° 293° (WNW) 09:41:52 435.000/436.395/437.385
NO-84 21 Oct 09:35:28 09:39:16 49° 36° (NE) 09:42:44 435.350 FM
DELFI C3 21 Oct 09:35:31 09:38:46 24° 95° (E) 09:41:59 145.870
YUBILEINY 21 Oct 09:36:36 09:45:17 84° 96° (E) 09:54:03 435.215
UNISAT 6 21 Oct 09:39:51 09:44:30 82° 74° (ENE) 09:49:13 437.425
Oscar 11 21 Oct 09:44:45 09:48:57 54° 286° (WNW) 09:53:08 .
AAUSAT CUBESAT 2 21 Oct 09:51:49 09:54:34 18° 294° (WNW) 09:57:19 437.432
TIGRISAT 21 Oct 09:54:24 09:59:02 77° 257° (WSW) 10:03:46 435.000
RS-15 21 Oct 09:59:48 10:11:45 82° 241° (WSW) 10:23:00 29.354- 29.394
EO-88 21 Oct 10:05:52 10:08:58 26° 96° (E) 10:12:02 145.990 - 145.960
ISS 21 Oct 10:07:45 10:10:59 89° 239° (WSW) 10:14:16 437.550
Max Valier Satellite 21 Oct 10:17:30 10:21:06 53° 100° (E) 10:24:40 145.860
PCSat 21 Oct 10:22:24 10:25:20 14° 321° (NW) 10:28:16 145.827
AO-73 21 Oct 10:24:24 10:27:00 16° 296° (WNW) 10:29:33 145.935
EO-79 21 Oct 10:27:56 10:29:35 12° 62° (ENE) 10:31:15 145.935-145.965
PRISM 21 Oct 10:28:11 10:32:11 64° 259° (WSW) 10:36:14 437.425
POLYITAN 1 21 Oct 10:32:25 10:34:33 14° 63° (ENE) 10:36:42 437.675
HO-68 21 Oct 10:38:14 10:39:41 11° 313° (NW) 10:41:08 435.675
QB50P2 21 Oct 10:51:18 10:54:42 23° 67° (ENE) 10:58:07 145.880/145.840
LO-87 21 Oct 10:53:31 10:55:07 12° 91° (E) 10:56:43 145.935 - 145.965
NANOSAT C BR1 21 Oct 10:53:49 10:56:56 20° 66° (ENE) 11:00:04 145.865
AIST 2D 21 Oct 11:02:56 11:06:26 74° 76° (ENE) 11:09:56 435.315
DUCHIFAT 1 21 Oct 11:03:45 11:07:03 22° 67° (ENE) 11:10:22 145.980
nSIGHT-1 21 Oct 11:09:25 11:12:11 27° 337° (NNW) 11:14:58 .
DELFI C3 21 Oct 11:10:09 11:13:27 26° 291° (WNW) 11:16:44 145.870
NO-84 21 Oct 11:13:36 11:16:18 19° 235° (SW) 11:18:49 435.350 FM
BEESAT 3 21 Oct 11:30:59 11:34:39 36° 116° (ESE) 11:38:22 437.485
YUBILEINY 21 Oct 11:37:02 11:43:14 21° 297° (WNW) 11:49:31 435.215
EO-88 21 Oct 11:39:47 11:42:26 19° 292° (WNW) 11:45:05 145.990 - 145.960
ISS 21 Oct 11:45:17 11:47:49 20° 343° (NNW) 11:50:22 437.550
Max Valier Satellite 21 Oct 11:53:32 11:54:27 11° 296° (WNW) 11:55:20 145.860
ESTCUBE 1 21 Oct 11:55:01 11:59:21 48° 99° (E) 12:03:41 437.505/2401.250
EO-79 21 Oct 12:00:32 12:04:46 67° 259° (W) 12:09:02 145.935-145.965
POLYITAN 1 21 Oct 12:05:36 12:09:49 59° 259° (W) 12:14:04 437.675
RS-15 21 Oct 12:14:43 12:22:08 20° 263° (W) 12:29:22 29.354- 29.394
Oscar 19 21 Oct 12:22:29 12:26:40 26° 65° (ENE) 12:30:50 437.125/150
SPROUT 21 Oct 12:23:45 12:27:16 24° 95° (E) 12:30:45 437.525
LO-87 21 Oct 12:25:17 12:28:43 40° 287° (WNW) 12:32:06 145.935 - 145.965
QB50P2 21 Oct 12:26:31 12:30:19 31° 263° (W) 12:34:09 145.880/145.840
NANOSAT C BR1 21 Oct 12:28:27 12:32:23 36° 262° (W) 12:36:20 145.865
DUCHIFAT 1 21 Oct 12:38:43 12:42:31 32° 263° (W) 12:46:22 145.980
BUGSAT 1 21 Oct 12:41:34 12:45:43 69° 76° (ENE) 12:49:57 437.445
nSIGHT-1 21 Oct 12:47:27 12:49:16 14° 357° (N) 12:51:05 .
BEESAT 2 21 Oct 12:53:47 12:57:47 87° 122° (ESE) 13:01:52 435.950
Gurwin Techsat 1B 21 Oct 13:01:38 13:06:33 40° 69° (ENE) 13:11:30 435.225
BEESAT 3 21 Oct 13:09:04 13:12:18 23° 314° (NW) 13:15:33 437.485
AO-85 21 Oct 13:14:49 13:18:42 89° 302° (WNW) 13:22:42 145.980
AO-7 21 Oct 13:15:15 13:20:45 20° 49° (NE) 13:26:14 .
VELOX 1 21 Oct 13:16:13 13:20:38 61° 101° (ESE) 13:25:01 145.980
ISS 21 Oct 13:23:16 13:25:12 15° 3° (N) 13:27:09 437.550
M-CUBED/EXP-1 PRIME 21 Oct 13:29:23 13:32:42 55° 254° (WSW) 13:35:56 437.505
ESTCUBE 1 21 Oct 13:32:52 13:35:46 17° 296° (WNW) 13:38:40 437.505/2401.250
SPROUT 21 Oct 13:59:23 14:03:08 30° 291° (WNW) 14:06:51 437.525
Oscar 19 21 Oct 14:00:54 14:05:45 41° 262° (W) 14:10:37 437.125/150
DX 1 21 Oct 14:18:53 14:23:16 71° 103° (ESE) 14:27:37 434.975-435.025
nSIGHT-1 21 Oct 14:23:57 14:26:27 20° 18° (NNE) 14:28:56 .
50 SAT 21 Oct 14:24:16 14:27:32 62° 285° (WNW) 14:30:48 437.505
BEESAT 2 21 Oct 14:34:12 14:36:06 13° 321° (NW) 14:38:00 435.950
ITAMSAT 1 21 Oct 14:36:25 14:40:51 29° 66° (ENE) 14:45:19 435.822/435.867
UKube-1 21 Oct 14:40:30 14:44:50 78° 104° (ESE) 14:49:09 .
Gurwin Techsat 1B 21 Oct 14:42:13 14:46:37 26° 266° (W) 14:51:01 435.225
SO-50 21 Oct 14:43:21 14:47:37 36° 49° (NE) 14:51:56 436.795
BEESAT 21 Oct 14:54:04 14:56:35 14° 91° (E) 14:59:06 436.000
VELOX 1 21 Oct 14:54:16 14:56:33 14° 298° (WNW) 14:58:50 145.980
AO-85 21 Oct 14:58:18 14:59:45 12° 323° (NW) 15:01:15 145.980
ISS 21 Oct 14:59:34 15:02:29 28° 23° (NNE) 15:05:22 437.550
AO-7 21 Oct 15:04:00 15:12:18 82° 69° (ENE) 15:20:37 .
MOZHAYETS 4 21 Oct 15:34:40 15:39:02 42° 98° (E) 15:43:21
PCSat 21 Oct 15:40:56 15:44:29 17° 41° (NE) 15:48:01 145.827
CUBESAT XI-V 21 Oct 15:50:33 15:52:53 14° 90° (E) 15:55:14 437.345
DX 1 21 Oct 15:57:10 15:58:50 12° 299° (WNW) 16:00:30 434.975-435.025
nSIGHT-1 21 Oct 15:59:51 16:03:04 87° 209° (SSW) 16:06:16 .
ITUPSAT 1 21 Oct 16:15:16 16:20:06 88° 285° (WNW) 16:24:52 437.325
ITAMSAT 1 21 Oct 16:15:28 16:20:11 35° 263° (W) 16:24:57 435.822/435.867
UKube-1 21 Oct 16:19:06 16:20:12 11° 300° (WNW) 16:21:18 .
SO-50 21 Oct 16:24:02 16:27:58 28° 246° (WSW) 16:31:55 436.795
BEESAT 21 Oct 16:30:02 16:34:46 62° 287° (WNW) 16:39:27 436.000
DOVE 4 21 Oct 16:32:04 16:35:58 39° 71° (ENE) 16:40:03 437.250
ISS 21 Oct 16:35:55 16:39:03 44° 221° (SW) 16:42:10 437.550
LilacSat-2 21 Oct 16:43:35 16:45:01 12° 64° (ENE) 16:46:26 437.200
XW-2D 21 Oct 16:48:44 16:50:29 13° 65° (ENE) 16:52:15 145.860 - 145.880
KKS-1 21 Oct 16:53:41 16:56:41 17° 93° (E) 16:59:41 437.445
CUTE-I 21 Oct 16:55:02 16:58:48 20° 62° (ENE) 17:02:35 437.470
AO-7 21 Oct 17:00:00 17:05:53 21° 268° (W) 17:11:50 .
XW-2B 21 Oct 17:01:22 17:03:53 17° 67° (ENE) 17:06:25 145.730 - 145.750
MOZHAYETS 4 21 Oct 17:12:34 17:15:52 20° 295° (WNW) 17:19:09
PCSat 21 Oct 17:23:10 17:28:38 88° 242° (WSW) 17:34:02 145.827
STARS 21 Oct 17:23:16 17:25:42 14° 92° (E) 17:28:06 437.465
XW-2C 21 Oct 17:23:41 17:27:05 31° 71° (ENE) 17:30:27 145.795 - 145.815
CUBESAT XI-V 21 Oct 17:26:06 17:30:38 59° 286° (WNW) 17:35:09 437.345
HO-68 21 Oct 17:29:11 17:34:41 25° 58° (ENE) 17:40:11 435.675
ITUPSAT 1 21 Oct 17:55:59 17:57:08 11° 302° (WNW) 17:58:17 437.325
KAITUO 1B 21 Oct 18:02:54 18:06:37 71° 75° (ENE) 18:10:20 145.475/437.950
XW-2F 21 Oct 18:06:57 18:10:44 78° 258° (WSW) 18:14:31 145.980 - 146.000
DOVE 4 21 Oct 18:11:04 18:13:53 17° 269° (W) 18:16:47 437.250
NUDT-PHONESAT 21 Oct 18:14:51 18:18:34 84° 258° (WSW) 18:22:18 437.300
LilacSat-2 21 Oct 18:15:05 18:18:50 53° 261° (W) 18:22:34 437.200
CUBEBUG 2 21 Oct 18:19:58 18:23:30 21° 66° (ENE) 18:27:04 437.445
XW-2D 21 Oct 18:20:35 18:24:15 46° 261° (W) 18:27:56 145.860 - 145.880
KKS-1 21 Oct 18:29:10 18:33:26 45° 289° (WNW) 18:37:42 437.445
CUTE-I 21 Oct 18:33:11 18:38:24 57° 259° (W) 18:43:40 437.470
XW-2B 21 Oct 18:34:22 18:37:48 33° 263° (W) 18:41:17 145.730 - 145.750
CUTE 1.7 + AOD 2 21 Oct 18:40:57 18:45:04 53° 74° (ENE) 18:49:11 437.475
SEEDS 21 Oct 18:45:44 18:49:34 36° 71° (ENE) 18:53:24 437.485
STRAND 1 21 Oct 18:50:30 18:52:33 12° 89° (E) 18:54:36 437.568
UWE-3 21 Oct 18:54:44 18:58:39 28° 68° (ENE) 19:02:37 435.000/436.395/437.385
STARS 21 Oct 18:58:00 19:02:20 53° 288° (WNW) 19:06:38 437.465
XW-2C 21 Oct 18:58:43 19:01:19 17° 267° (W) 19:03:54 145.795 - 145.815
AAUSAT CUBESAT 2 21 Oct 19:05:52 19:09:18 27° 69° (ENE) 19:12:46 437.432
Oscar 11 21 Oct 19:06:27 19:07:54 11° 62° (ENE) 19:09:20 .
PCSat 21 Oct 19:09:29 19:11:10 11° 258° (WSW) 19:12:50 145.827
HO-68 21 Oct 19:14:37 19:21:45 71° 256° (WSW) 19:28:57 435.675
XW-2A 21 Oct 19:27:05 19:30:27 64° 76° (ENE) 19:33:51 145.665 - 145.685
AO-73 21 Oct 19:41:58 19:46:14 40° 71° (ENE) 19:50:30 145.935
YUBILEINY 21 Oct 19:46:36 19:54:54 43° 73° (ENE) 20:03:09 435.215
BEESAT 3 21 Oct 19:47:22 19:50:42 25° 47° (NE) 19:53:59 437.485
CUBEBUG 2 21 Oct 19:55:22 19:59:48 42° 263° (W) 20:04:19 437.445
ZACube-1 21 Oct 20:04:32 20:09:07 79° 76° (ENE) 20:13:43 437.345
AO-85 21 Oct 20:05:56 20:08:16 14° 39° (NE) 20:10:39 145.980
FO-29 21 Oct 20:06:40 20:11:19 18° 90° (E) 20:16:11 435.910
CUTE 1.7 + AOD 2 21 Oct 20:19:16 20:21:13 13° 270° (W) 20:23:09 437.475
DELFI C3 21 Oct 20:21:55 20:24:05 15° 65° (ENE) 20:26:17 145.870
SEEDS 21 Oct 20:22:26 20:25:21 18° 267° (W) 20:28:17 437.485
STRAND 1 21 Oct 20:27:08 20:32:19 79° 285° (WNW) 20:37:27 437.568
O/OREOS (USA 219) 21 Oct 20:30:18 20:34:50 79° 112° (ESE) 20:39:27 437.305
UWE-3 21 Oct 20:30:52 20:34:59 31° 264° (W) 20:39:09 435.000/436.395/437.385
Oscar 11 21 Oct 20:39:06 20:43:26 72° 259° (W) 20:47:46 .
AAUSAT CUBESAT 2 21 Oct 20:41:20 20:44:42 24° 265° (W) 20:48:05 437.432
EO-88 21 Oct 20:44:55 20:46:37 13° 65° (ENE) 20:48:19 145.990 - 145.960
Max Valier Satellite 21 Oct 20:56:34 20:59:38 24° 70° (ENE) 21:02:42 145.860
HO-68 21 Oct 21:08:59 21:10:41 11° 274° (W) 21:12:23 435.675
BEESAT 2 21 Oct 21:11:05 21:15:04 53° 54° (NE) 21:18:59 435.950
AO-73 21 Oct 21:19:12 21:22:35 20° 267° (W) 21:25:58 145.935
BEESAT 3 21 Oct 21:24:45 21:28:15 31° 245° (WSW) 21:31:42 437.485
UNISAT 6 21 Oct 21:32:29 21:35:31 17° 91° (E) 21:38:31 437.425
YUBILEINY 21 Oct 21:43:33 21:51:38 43° 273° (W) 21:59:45 435.215
AO-85 21 Oct 21:44:42 21:49:18 81° 57° (ENE) 21:54:13 145.980
ZACube-1 21 Oct 21:45:27 21:45:54 10° 272° (W) 21:46:22 437.345
TIGRISAT 21 Oct 21:46:26 21:50:01 22° 93° (E) 21:53:31 435.000
FO-29 21 Oct 21:49:54 21:56:54 86° 285° (WNW) 22:04:36 435.910
DELFI C3 21 Oct 21:54:45 21:58:28 43° 261° (W) 22:02:13 145.870
STRAND 1 21 Oct 22:09:27 22:10:36 11° 303° (WNW) 22:11:44 437.568
PRISM 21 Oct 22:09:58 22:12:37 16° 93° (E) 22:15:16 437.425
O/OREOS (USA 219) 21 Oct 22:12:44 22:14:52 13° 310° (NW) 22:17:01 437.305
EO-88 21 Oct 22:16:24 22:19:53 42° 261° (W) 22:23:23 145.990 - 145.960
RS-15 21 Oct 22:17:31 22:23:11 15° 94° (E) 22:28:50 29.354- 29.394
Max Valier Satellite 21 Oct 22:30:27 22:33:23 22° 265° (W) 22:36:19 145.860
